Time,TemperatureF,DewpointF,PressureIn,WindDirection,WindDirectionDegrees,WindSpeedMPH,WindSpeedGustMPH,Humidity,HourlyPrecipIn,Conditions,Clouds,dailyrainin,SolarRadiationWatts/m^2,SoftwareType,DateUTC
2013-03-05 00:00:00,64.4,21.2,30.00,North,8,18.0,0.0,19,0.00,,,0.00,0,WeatherHawk,2013-03-05 06:00:00,
2013-03-05 00:05:00,64.1,22.3,30.00,NNW,328,20.0,0.0,20,0.00,,,0.00,0,WeatherHawk,2013-03-05 06:05:00,
2013-03-05 00:10:00,63.4,22.8,30.01,NNW,329,23.0,-999.0,21,0.00,,,0.00,0,WeatherHawk,2013-03-05 06:10:00,
2013-03-05 00:15:00,62.8,23.4,30.03,NW,321,12.0,0.0,22,0.00,,,0.00,0,WeatherHawk,2013-03-05 06:15:00,
2013-03-05 00:20:00,59.0,25.1,30.04,NNW,332,16.0,-999.0,27,0.00,,,0.00,0,WeatherHawk,2013-03-05 06:20:00,
2013-03-05 00:25:00,58.1,26.0,30.05,NW,320,20.0,0.0,29,0.00,,,0.00,0,WeatherHawk,2013-03-05 06:25:00,
2013-03-05 00:30:00,57.4,26.2,30.06,NNW,339,23.0,0.0,30,0.00,,,0.00,0,WeatherHawk,2013-03-05 06:30:00,
2013-03-05 00:35:00,57.0,26.6,30.06,NNW,331,13.0,0.0,31,0.00,,,0.00,1,WeatherHawk,2013-03-05 06:35:00,
2013-03-05 00:40:00,56.7,27.2,30.07,WSW,240,14.0,-999.0,32,0.00,,,0.00,0,WeatherHawk,2013-03-05 06:40:00,
2013-03-05 00:45:00,56.3,27.6,30.09,NW,323,12.0,0.0,33,0.00,,,0.00,0,WeatherHawk,2013-03-05 06:45:00,
2013-03-05 00:50:00,56.2,27.4,30.10,NW,310,10.0,-999.0,33,0.00,,,0.00,0,WeatherHawk,2013-03-05 06:50:00,
2013-03-05 00:55:00,56.4,27.7,30.11,NW,322,13.0,0.0,33,0.00,,,0.00,0,WeatherHawk,2013-03-05 06:55:00,
2013-03-05 01:00:00,56.1,27.4,30.12,NNW,345,11.0,-999.0,33,0.00,,,0.00,0,WeatherHawk,2013-03-05 07:00:00,
2013-03-05 01:05:00,55.5,26.9,30.14,NW,325,17.0,0.0,33,0.00,,,0.00,1,WeatherHawk,2013-03-05 07:05:00,
2013-03-05 01:10:00,55.2,26.6,30.14,East,99,11.0,0.0,33,0.00,,,0.00,0,WeatherHawk,2013-03-05 07:10:00,
2013-03-05 01:15:00,55.0,26.4,30.16,NNW,335,19.0,0.0,33,0.00,,,0.00,1,WeatherHawk,2013-03-05 07:15:00,
2013-03-05 01:20:00,54.3,26.6,30.17,NNW,345,20.0,0.0,34,0.00,,,0.00,1,WeatherHawk,2013-03-05 07:20:00,
2013-03-05 01:25:00,53.2,27.0,30.18,NW,314,24.0,0.0,36,0.00,,,0.00,0,WeatherHawk,2013-03-05 07:25:00,
2013-03-05 01:30:00,53.0,26.7,30.18,NNW,327,26.0,0.0,36,0.00,,,0.00,0,WeatherHawk,2013-03-05 07:30:00,
2013-03-05 01:35:00,52.5,27.0,30.20,NW,319,12.0,0.0,37,0.00,,,0.00,1,WeatherHawk,2013-03-05 07:35:00,
2013-03-05 01:40:00,52.1,27.3,30.20,NW,316,21.0,0.0,38,0.00,,,0.00,1,WeatherHawk,2013-03-05 07:40:00,
2013-03-05 01:45:00,51.3,26.6,30.21,WNW,302,24.0,0.0,38,0.00,,,0.00,1,WeatherHawk,2013-03-05 07:45:00,
2013-03-05 01:50:00,51.3,27.2,30.20,North,351,15.0,0.0,39,0.00,,,0.00,0,WeatherHawk,2013-03-05 07:50:00,
2013-03-05 01:55:00,51.1,27.0,30.21,NW,324,22.0,0.0,39,0.00,,,0.00,0,WeatherHawk,2013-03-05 07:55:00,
2013-03-05 02:00:00,51.0,26.9,30.21,NW,323,22.0,0.0,39,0.00,,,0.00,0,WeatherHawk,2013-03-05 08:00:00,
2013-03-05 02:05:00,50.8,26.2,30.21,WNW,301,23.0,0.0,38,0.00,,,0.00,1,WeatherHawk,2013-03-05 08:05:00,
2013-03-05 02:10:00,50.7,26.0,30.22,West,278,18.0,0.0,38,0.00,,,0.00,0,WeatherHawk,2013-03-05 08:10:00,
2013-03-05 02:15:00,50.5,26.5,30.22,NW,321,23.0,0.0,39,0.00,,,0.00,0,WeatherHawk,2013-03-05 08:15:00,
2013-03-05 02:20:00,50.3,26.3,30.23,NNW,344,19.0,0.0,39,0.00,,,0.00,0,WeatherHawk,2013-03-05 08:20:00,
2013-03-05 02:25:00,50.4,26.3,30.23,NNE,14,14.0,0.0,39,0.00,,,0.00,1,WeatherHawk,2013-03-05 08:25:00,
2013-03-05 02:30:00,50.3,25.7,30.22,NNW,338,24.0,-999.0,38,0.00,,,0.00,0,WeatherHawk,2013-03-05 08:30:00,
2013-03-05 02:35:00,50.1,24.9,30.21,NNW,335,23.0,0.0,37,0.00,,,0.00,0,WeatherHawk,2013-03-05 08:35:00,
2013-03-05 02:40:00,50.2,24.3,30.22,North,2,17.0,0.0,36,0.00,,,0.00,0,WeatherHawk,2013-03-05 08:40:00,
2013-03-05 02:45:00,50.1,24.9,30.24,NE,41,17.0,0.0,37,0.00,,,0.00,0,WeatherHawk,2013-03-05 08:45:00,
2013-03-05 02:50:00,50.0,24.1,30.23,NNW,328,16.0,0.0,36,0.00,,,0.00,0,WeatherHawk,2013-03-05 08:50:00,
2013-03-05 02:55:00,50.1,24.2,30.25,NNE,12,10.0,0.0,36,0.00,,,0.00,1,WeatherHawk,2013-03-05 08:55:00,
2013-03-05 03:00:00,50.0,22.8,30.26,NNW,334,12.0,0.0,34,0.00,,,0.00,0,WeatherHawk,2013-03-05 09:00:00,
2013-03-05 03:05:00,49.9,22.7,30.27,NNW,329,12.0,0.0,34,0.00,,,0.00,0,WeatherHawk,2013-03-05 09:05:00,
2013-03-05 03:10:00,50.1,21.4,30.28,North,1,14.0,0.0,32,0.00,,,0.00,1,WeatherHawk,2013-03-05 09:10:00,
2013-03-05 03:15:00,50.2,20.8,30.31,NW,325,17.0,0.0,31,0.00,,,0.00,1,WeatherHawk,2013-03-05 09:15:00,
2013-03-05 03:20:00,50.2,19.9,30.33,WNW,294,10.0,0.0,30,0.00,,,0.00,1,WeatherHawk,2013-03-05 09:20:00,
2013-03-05 03:25:00,50.2,19.9,30.31,ESE,102,10.0,0.0,30,0.00,,,0.00,0,WeatherHawk,2013-03-05 09:25:00,
2013-03-05 03:30:00,50.1,19.1,30.30,NE,41,14.0,0.0,29,0.00,,,0.00,0,WeatherHawk,2013-03-05 09:30:00,
2013-03-05 03:35:00,50.1,18.3,30.30,NNE,24,14.0,0.0,28,0.00,,,0.00,1,WeatherHawk,2013-03-05 09:35:00,
2013-03-05 03:40:00,50.1,18.3,30.31,WNW,293,10.0,0.0,28,0.00,,,0.00,0,WeatherHawk,2013-03-05 09:40:00,
2013-03-05 03:45:00,50.1,17.4,30.32,NE,49,13.0,0.0,27,0.00,,,0.00,0,WeatherHawk,2013-03-05 09:45:00,
2013-03-05 03:50:00,50.2,17.6,30.33,NNE,17,14.0,0.0,27,0.00,,,0.00,0,WeatherHawk,2013-03-05 09:50:00,
2013-03-05 03:55:00,50.1,17.4,30.34,NNW,327,11.0,0.0,27,0.00,,,0.00,1,WeatherHawk,2013-03-05 09:55:00,
2013-03-05 04:00:00,50.1,16.6,30.35,North,9,19.0,0.0,26,0.00,,,0.00,0,WeatherHawk,2013-03-05 10:00:00,
2013-03-05 04:05:00,50.1,17.4,30.35,NE,48,11.0,0.0,27,0.00,,,0.00,1,WeatherHawk,2013-03-05 10:05:00,
2013-03-05 04:10:00,50.1,16.6,30.33,NW,326,21.0,0.0,26,0.00,,,0.00,0,WeatherHawk,2013-03-05 10:10:00,
2013-03-05 04:15:00,50.0,17.3,30.33,NNW,341,17.0,0.0,27,0.00,,,0.00,0,WeatherHawk,2013-03-05 10:15:00,
2013-03-05 04:20:00,50.1,17.4,30.36,NE,38,13.0,0.0,27,0.00,,,0.00,0,WeatherHawk,2013-03-05 10:20:00,
2013-03-05 04:25:00,50.0,17.3,30.37,NW,314,16.0,0.0,27,0.00,,,0.00,0,WeatherHawk,2013-03-05 10:25:00,
2013-03-05 04:30:00,50.0,17.3,30.37,NW,307,17.0,-999.0,27,0.00,,,0.00,1,WeatherHawk,2013-03-05 10:30:00,
2013-03-05 04:35:00,49.7,18.0,30.36,North,1,11.0,0.0,28,0.00,,,0.00,1,WeatherHawk,2013-03-05 10:35:00,
2013-03-05 04:40:00,49.7,17.9,30.37,North,3,9.0,0.0,28,0.00,,,0.00,1,WeatherHawk,2013-03-05 10:40:00,
2013-03-05 04:45:00,49.5,18.6,30.36,NE,44,15.0,0.0,29,0.00,,,0.00,0,WeatherHawk,2013-03-05 10:45:00,
2013-03-05 04:50:00,49.3,18.4,30.36,NNW,346,9.0,-999.0,29,0.00,,,0.00,0,WeatherHawk,2013-03-05 10:50:00,
2013-03-05 04:55:00,49.2,18.3,30.37,NNW,340,13.0,0.0,29,0.00,,,0.00,1,WeatherHawk,2013-03-05 10:55:00,
2013-03-05 05:00:00,48.8,18.8,30.37,NE,45,15.0,0.0,30,0.00,,,0.00,0,WeatherHawk,2013-03-05 11:00:00,
2013-03-05 05:05:00,48.8,18.8,30.37,NNE,17,10.0,0.0,30,0.00,,,0.00,0,WeatherHawk,2013-03-05 11:05:00,
2013-03-05 05:10:00,48.5,19.3,30.37,North,2,8.0,0.0,31,0.00,,,0.00,0,WeatherHawk,2013-03-05 11:10:00,
2013-03-05 05:15:00,48.3,19.8,30.38,North,349,12.0,0.0,32,0.00,,,0.00,0,WeatherHawk,2013-03-05 11:15:00,
2013-03-05 05:20:00,48.5,19.2,30.38,NW,324,11.0,0.0,31,0.00,,,0.00,0,WeatherHawk,2013-03-05 11:20:00,
2013-03-05 05:25:00,48.3,19.1,30.39,NW,312,13.0,0.0,31,0.00,,,0.00,2,WeatherHawk,2013-03-05 11:25:00,
2013-03-05 05:30:00,48.4,19.2,30.40,NNE,21,12.0,0.0,31,0.00,,,0.00,0,WeatherHawk,2013-03-05 11:30:00,
2013-03-05 05:35:00,48.3,19.1,30.39,NNE,24,15.0,0.0,31,0.00,,,0.00,1,WeatherHawk,2013-03-05 11:35:00,
2013-03-05 05:40:00,48.2,19.0,30.39,NW,309,14.0,-999.0,31,0.00,,,0.00,0,WeatherHawk,2013-03-05 11:40:00,
2013-03-05 05:45:00,47.8,18.7,30.40,WSW,252,10.0,0.0,31,0.00,,,0.00,0,WeatherHawk,2013-03-05 11:45:00,
2013-03-05 05:50:00,47.9,18.8,30.41,North,0,15.0,0.0,31,0.00,,,0.00,1,WeatherHawk,2013-03-05 11:50:00,
2013-03-05 05:55:00,47.7,19.3,30.42,North,1,8.0,-999.0,32,0.00,,,0.00,0,WeatherHawk,2013-03-05 11:55:00,
2013-03-05 06:00:00,47.7,19.3,30.42,NNE,33,6.0,-999.0,32,0.00,,,0.00,1,WeatherHawk,2013-03-05 12:00:00,
2013-03-05 06:05:00,47.4,18.3,30.42,North,351,9.0,0.0,31,0.00,,,0.00,0,WeatherHawk,2013-03-05 12:05:00,
2013-03-05 06:10:00,47.6,16.2,30.43,NNW,337,26.0,0.0,28,0.00,,,0.00,0,WeatherHawk,2013-03-05 12:10:00,
2013-03-05 06:15:00,47.4,15.2,30.43,NNW,342,11.0,0.0,27,0.00,,,0.00,0,WeatherHawk,2013-03-05 12:15:00,
2013-03-05 06:20:00,47.3,14.1,30.43,NNW,336,16.0,0.0,26,0.00,,,0.00,0,WeatherHawk,2013-03-05 12:20:00,
2013-03-05 06:25:00,47.1,14.0,30.44,NNW,335,13.0,-999.0,26,0.00,,,0.00,1,WeatherHawk,2013-03-05 12:25:00,
2013-03-05 06:30:00,46.8,13.8,30.44,West,281,19.0,0.0,26,0.00,,,0.00,1,WeatherHawk,2013-03-05 12:30:00,
2013-03-05 06:35:00,46.5,13.4,30.45,North,350,7.0,0.0,26,0.00,,,0.00,1,WeatherHawk,2013-03-05 12:35:00,
2013-03-05 06:40:00,46.7,14.5,30.45,NW,322,16.0,0.0,27,0.00,,,0.00,0,WeatherHawk,2013-03-05 12:40:00,
2013-03-05 06:45:00,46.4,12.5,30.45,SSE,147,12.0,0.0,25,0.00,,,0.00,2,WeatherHawk,2013-03-05 12:45:00,
2013-03-05 06:50:00,46.1,12.2,30.45,NNE,25,6.0,0.0,25,0.00,,,0.00,5,WeatherHawk,2013-03-05 12:50:00,
2013-03-05 06:55:00,46.1,13.1,30.46,West,278,8.0,0.0,26,0.00,,,0.00,10,WeatherHawk,2013-03-05 12:55:00,
2013-03-05 07:00:00,46.1,13.2,30.47,West,274,7.0,0.0,26,0.00,,,0.00,17,WeatherHawk,2013-03-05 13:00:00,
2013-03-05 07:05:00,46.2,11.5,30.47,WNW,284,27.0,0.0,24,0.00,,,0.00,27,WeatherHawk,2013-03-05 13:05:00,
2013-03-05 07:10:00,46.0,11.3,30.46,NNW,330,15.0,0.0,24,0.00,,,0.00,39,WeatherHawk,2013-03-05 13:10:00,
2013-03-05 07:15:00,46.0,11.2,30.47,NW,313,20.0,0.0,24,0.00,,,0.00,51,WeatherHawk,2013-03-05 13:15:00,
2013-03-05 07:20:00,45.9,11.2,30.48,NE,43,10.0,0.0,24,0.00,,,0.00,56,WeatherHawk,2013-03-05 13:20:00,
2013-03-05 07:25:00,46.2,11.4,30.49,NNW,341,15.0,0.0,24,0.00,,,0.00,71,WeatherHawk,2013-03-05 13:25:00,
2013-03-05 07:30:00,46.1,10.4,30.49,NW,324,17.0,0.0,23,0.00,,,0.00,86,WeatherHawk,2013-03-05 13:30:00,
2013-03-05 07:35:00,46.4,11.6,30.48,NW,313,7.0,-999.0,24,0.00,,,0.00,98,WeatherHawk,2013-03-05 13:35:00,
2013-03-05 07:40:00,46.5,10.7,30.50,NW,323,9.0,0.0,23,0.00,,,0.00,113,WeatherHawk,2013-03-05 13:40:00,
2013-03-05 07:45:00,46.5,9.8,30.49,West,276,11.0,0.0,22,0.00,,,0.00,126,WeatherHawk,2013-03-05 13:45:00,
2013-03-05 07:50:00,46.9,11.0,30.49,NNW,329,11.0,0.0,23,0.00,,,0.00,142,WeatherHawk,2013-03-05 13:50:00,
2013-03-05 07:55:00,46.4,10.7,30.49,NW,319,18.0,-999.0,23,0.00,,,0.00,157,WeatherHawk,2013-03-05 13:55:00,
2013-03-05 08:00:00,46.2,10.5,30.50,NNW,331,22.0,0.0,23,0.00,,,0.00,172,WeatherHawk,2013-03-05 14:00:00,
2013-03-05 08:05:00,46.7,11.8,30.50,North,6,8.0,-999.0,24,0.00,,,0.00,189,WeatherHawk,2013-03-05 14:05:00,
2013-03-05 08:10:00,47.7,12.7,30.50,NNW,328,8.0,0.0,24,0.00,,,0.00,205,WeatherHawk,2013-03-05 14:10:00,
2013-03-05 08:15:00,47.1,12.2,30.50,NNE,16,17.0,-999.0,24,0.00,,,0.00,220,WeatherHawk,2013-03-05 14:15:00,
2013-03-05 08:20:00,47.5,11.6,30.51,SW,222,11.0,0.0,23,0.00,,,0.00,238,WeatherHawk,2013-03-05 14:20:00,
2013-03-05 08:25:00,46.9,9.1,30.51,NW,323,14.0,0.0,21,0.00,,,0.00,253,WeatherHawk,2013-03-05 14:25:00,
2013-03-05 08:30:00,47.6,9.6,30.51,North,1,15.0,0.0,21,0.00,,,0.00,271,WeatherHawk,2013-03-05 14:30:00,
2013-03-05 08:35:00,47.5,8.5,30.51,NW,308,15.0,0.0,20,0.00,,,0.00,289,WeatherHawk,2013-03-05 14:35:00,
2013-03-05 08:40:00,47.4,9.5,30.51,WNW,288,13.0,0.0,21,0.00,,,0.00,303,WeatherHawk,2013-03-05 14:40:00,
2013-03-05 08:45:00,48.0,8.9,30.51,NW,315,16.0,0.0,20,0.00,,,0.00,321,WeatherHawk,2013-03-05 14:45:00,
2013-03-05 08:50:00,47.9,9.9,30.52,NNW,347,13.0,0.0,21,0.00,,,0.00,339,WeatherHawk,2013-03-05 14:50:00,
2013-03-05 08:55:00,47.5,9.6,30.51,NW,317,15.0,0.0,21,0.00,,,0.00,357,WeatherHawk,2013-03-05 14:55:00,
2013-03-05 09:00:00,47.2,8.2,30.52,NE,38,18.0,0.0,20,0.00,,,0.00,373,WeatherHawk,2013-03-05 15:00:00,
2013-03-05 09:05:00,49.4,8.9,30.52,NE,36,8.0,-999.0,19,0.00,,,0.00,389,WeatherHawk,2013-03-05 15:05:00,
2013-03-05 09:10:00,48.5,5.7,30.52,North,9,18.0,0.0,17,0.00,,,0.00,409,WeatherHawk,2013-03-05 15:10:00,
2013-03-05 09:15:00,47.3,3.4,30.51,NW,326,17.0,-999.0,16,0.00,,,0.00,426,WeatherHawk,2013-03-05 15:15:00,
2013-03-05 09:20:00,48.2,5.5,30.53,NNW,348,20.0,0.0,17,0.00,,,0.00,441,WeatherHawk,2013-03-05 15:20:00,
2013-03-05 09:25:00,47.3,2.1,30.53,WNW,296,18.0,0.0,15,0.00,,,0.00,456,WeatherHawk,2013-03-05 15:25:00,
2013-03-05 09:30:00,48.0,4.0,30.53,NNW,341,23.0,0.0,16,0.00,,,0.00,471,WeatherHawk,2013-03-05 15:30:00,
2013-03-05 09:35:00,48.1,2.7,30.53,NNW,328,19.0,0.0,15,0.00,,,0.00,486,WeatherHawk,2013-03-05 15:35:00,
2013-03-05 09:40:00,47.5,0.7,30.54,NW,323,26.0,0.0,14,0.00,,,0.00,503,WeatherHawk,2013-03-05 15:40:00,
2013-03-05 09:45:00,48.6,3.1,30.53,West,280,19.0,0.0,15,0.00,,,0.00,515,WeatherHawk,2013-03-05 15:45:00,
2013-03-05 09:50:00,48.8,1.7,30.53,NNW,338,10.0,0.0,14,0.00,,,0.00,531,WeatherHawk,2013-03-05 15:50:00,
2013-03-05 09:55:00,48.3,-3.8,30.53,NW,307,18.0,0.0,11,0.00,,,0.00,547,WeatherHawk,2013-03-05 15:55:00,
2013-03-05 10:00:00,49.8,-0.7,30.54,NE,42,11.0,0.0,12,0.00,,,0.00,561,WeatherHawk,2013-03-05 16:00:00,
2013-03-05 10:05:00,49.1,-1.3,30.54,NNW,333,24.0,-999.0,12,0.00,,,0.00,576,WeatherHawk,2013-03-05 16:05:00,
2013-03-05 10:10:00,50.5,-2.0,30.54,NW,318,18.0,0.0,11,0.00,,,0.00,586,WeatherHawk,2013-03-05 16:10:00,
2013-03-05 10:15:00,50.8,-1.8,30.54,NNE,20,11.0,0.0,11,0.00,,,0.00,598,WeatherHawk,2013-03-05 16:15:00,
2013-03-05 10:20:00,49.4,0.7,30.55,NW,326,15.0,0.0,13,0.00,,,0.00,610,WeatherHawk,2013-03-05 16:20:00,
2013-03-05 10:25:00,49.4,-4.8,30.54,West,265,19.0,0.0,10,0.00,,,0.00,624,WeatherHawk,2013-03-05 16:25:00,
2013-03-05 10:30:00,49.5,-9.4,30.55,North,4,17.0,0.0,8,0.00,,,0.00,634,WeatherHawk,2013-03-05 16:30:00,
2013-03-05 10:35:00,51.0,-3.6,30.56,NNW,345,7.0,0.0,10,0.00,,,0.00,651,WeatherHawk,2013-03-05 16:35:00,
2013-03-05 10:40:00,50.9,-1.7,30.56,NW,324,8.0,0.0,11,0.00,,,0.00,659,WeatherHawk,2013-03-05 16:40:00,
2013-03-05 10:45:00,49.2,-5.0,30.55,NNW,329,24.0,0.0,10,0.00,,,0.00,671,WeatherHawk,2013-03-05 16:45:00,
2013-03-05 10:50:00,49.5,-9.3,30.57,NW,316,17.0,0.0,8,0.00,,,0.00,684,WeatherHawk,2013-03-05 16:50:00,
2013-03-05 10:55:00,49.7,-2.6,30.57,NW,312,23.0,0.0,11,0.00,,,0.00,697,WeatherHawk,2013-03-05 16:55:00,
2013-03-05 11:00:00,50.3,-2.2,30.57,NNE,13,15.0,0.0,11,0.00,,,0.00,704,WeatherHawk,2013-03-05 17:00:00,
2013-03-05 11:05:00,50.2,-6.4,30.56,NW,315,17.0,0.0,9,0.00,,,0.00,712,WeatherHawk,2013-03-05 17:05:00,
2013-03-05 11:10:00,49.3,-7.1,30.56,WNW,301,16.0,0.0,9,0.00,,,0.00,719,WeatherHawk,2013-03-05 17:10:00,
2013-03-05 11:15:00,50.0,-6.6,30.56,NE,56,12.0,0.0,9,0.00,,,0.00,728,WeatherHawk,2013-03-05 17:15:00,
2013-03-05 11:20:00,50.9,-5.9,30.56,NNW,335,14.0,0.0,9,0.00,,,0.00,737,WeatherHawk,2013-03-05 17:20:00,
2013-03-05 11:25:00,49.9,-9.0,30.57,WNW,303,19.0,-999.0,8,0.00,,,0.00,748,WeatherHawk,2013-03-05 17:25:00,
2013-03-05 11:30:00,51.0,-8.2,30.56,NNE,31,8.0,0.0,8,0.00,,,0.00,748,WeatherHawk,2013-03-05 17:30:00,
2013-03-05 11:35:00,49.1,-9.6,30.56,NNW,338,23.0,0.0,8,0.00,,,0.00,762,WeatherHawk,2013-03-05 17:35:00,
2013-03-05 11:40:00,51.6,-5.3,30.56,East,92,14.0,0.0,9,0.00,,,0.00,769,WeatherHawk,2013-03-05 17:40:00,
2013-03-05 11:45:00,51.4,-7.9,30.56,WNW,290,17.0,-999.0,8,0.00,,,0.00,773,WeatherHawk,2013-03-05 17:45:00,
2013-03-05 11:50:00,52.2,-10.0,30.55,NNW,331,16.0,0.0,7,0.00,,,0.00,781,WeatherHawk,2013-03-05 17:50:00,
2013-03-05 11:55:00,49.4,-12.1,30.56,North,350,17.0,0.0,7,0.00,,,0.00,793,WeatherHawk,2013-03-05 17:55:00,
2013-03-05 12:00:00,49.4,-12.1,30.56,NW,312,23.0,0.0,7,0.00,,,0.00,792,WeatherHawk,2013-03-05 18:00:00,
2013-03-05 12:05:00,50.7,-11.1,30.55,NNW,333,11.0,0.0,7,0.00,,,0.00,797,WeatherHawk,2013-03-05 18:05:00,
2013-03-05 12:10:00,50.6,-8.5,30.57,NNW,332,17.0,0.0,8,0.00,,,0.00,801,WeatherHawk,2013-03-05 18:10:00,
2013-03-05 12:15:00,50.4,-8.6,30.57,NNW,334,17.0,0.0,8,0.00,,,0.00,805,WeatherHawk,2013-03-05 18:15:00,
2013-03-05 12:20:00,51.9,-7.5,30.56,NNW,332,17.0,0.0,8,0.00,,,0.00,810,WeatherHawk,2013-03-05 18:20:00,
2013-03-05 12:25:00,49.9,-6.7,30.55,NNW,332,22.0,0.0,9,0.00,,,0.00,812,WeatherHawk,2013-03-05 18:25:00,
2013-03-05 12:30:00,50.9,-5.9,30.56,NNW,348,13.0,0.0,9,0.00,,,0.00,816,WeatherHawk,2013-03-05 18:30:00,
2013-03-05 12:35:00,50.9,-5.9,30.56,NW,324,15.0,0.0,9,0.00,,,0.00,816,WeatherHawk,2013-03-05 18:35:00,
2013-03-05 12:40:00,50.7,-6.0,30.55,WNW,298,18.0,0.0,9,0.00,,,0.00,814,WeatherHawk,2013-03-05 18:40:00,
2013-03-05 12:45:00,51.0,-5.8,30.55,NNW,338,16.0,0.0,9,0.00,,,0.00,818,WeatherHawk,2013-03-05 18:45:00,
2013-03-05 12:50:00,51.7,-5.3,30.56,NNW,337,12.0,0.0,9,0.00,,,0.00,819,WeatherHawk,2013-03-05 18:50:00,
2013-03-05 12:55:00,51.8,-5.2,30.54,NNE,25,12.0,0.0,9,0.00,,,0.00,814,WeatherHawk,2013-03-05 18:55:00,
2013-03-05 13:00:00,50.4,-6.2,30.55,NNW,335,16.0,0.0,9,0.00,,,0.00,817,WeatherHawk,2013-03-05 19:00:00,
2013-03-05 13:05:00,50.7,-6.0,30.54,NW,316,18.0,0.0,9,0.00,,,0.00,816,WeatherHawk,2013-03-05 19:05:00,
2013-03-05 13:10:00,52.3,-4.8,30.54,WNW,289,12.0,-999.0,9,0.00,,,0.00,814,WeatherHawk,2013-03-05 19:10:00,
2013-03-05 13:15:00,52.3,-4.8,30.54,NW,308,13.0,0.0,9,0.00,,,0.00,808,WeatherHawk,2013-03-05 19:15:00,
2013-03-05 13:20:00,51.8,-5.2,30.54,NNW,334,18.0,0.0,9,0.00,,,0.00,806,WeatherHawk,2013-03-05 19:20:00,
2013-03-05 13:25:00,53.4,-4.0,30.54,NNE,28,11.0,0.0,9,0.00,,,0.00,802,WeatherHawk,2013-03-05 19:25:00,
2013-03-05 13:30:00,51.8,-5.2,30.52,NW,311,11.0,0.0,9,0.00,,,0.00,796,WeatherHawk,2013-03-05 19:30:00,
2013-03-05 13:35:00,56.4,-4.1,30.52,SW,230,8.0,0.0,8,0.00,,,0.00,798,WeatherHawk,2013-03-05 19:35:00,
2013-03-05 13:40:00,52.9,-4.3,30.53,NW,321,18.0,0.0,9,0.00,,,0.00,786,WeatherHawk,2013-03-05 19:40:00,
2013-03-05 13:45:00,53.8,-3.7,30.52,NNW,332,11.0,0.0,9,0.00,,,0.00,781,WeatherHawk,2013-03-05 19:45:00,
2013-03-05 13:50:00,53.7,-3.8,30.52,WNW,297,15.0,-999.0,9,0.00,,,0.00,776,WeatherHawk,2013-03-05 19:50:00,
2013-03-05 13:55:00,53.3,-4.1,30.51,NW,320,20.0,0.0,9,0.00,,,0.00,771,WeatherHawk,2013-03-05 19:55:00,
2013-03-05 14:00:00,54.8,-2.9,30.52,WNW,291,12.0,-999.0,9,0.00,,,0.00,767,WeatherHawk,2013-03-05 20:00:00,
2013-03-05 14:05:00,52.5,-4.6,30.52,NW,309,20.0,0.0,9,0.00,,,0.00,765,WeatherHawk,2013-03-05 20:05:00,
2013-03-05 14:10:00,53.4,-4.0,30.51,NNW,336,16.0,-999.0,9,0.00,,,0.00,756,WeatherHawk,2013-03-05 20:10:00,
2013-03-05 14:15:00,54.2,-3.3,30.51,NE,38,14.0,-999.0,9,0.00,,,0.00,746,WeatherHawk,2013-03-05 20:15:00,
2013-03-05 14:20:00,53.8,-3.7,30.51,NNW,333,15.0,0.0,9,0.00,,,0.00,736,WeatherHawk,2013-03-05 20:20:00,
2013-03-05 14:25:00,54.4,-3.2,30.51,NW,306,14.0,-999.0,9,0.00,,,0.00,727,WeatherHawk,2013-03-05 20:25:00,
2013-03-05 14:30:00,54.0,-3.5,30.51,NE,52,16.0,0.0,9,0.00,,,0.00,721,WeatherHawk,2013-03-05 20:30:00,
2013-03-05 14:35:00,53.5,-3.9,30.51,NW,318,14.0,0.0,9,0.00,,,0.00,714,WeatherHawk,2013-03-05 20:35:00,
2013-03-05 14:40:00,53.9,-3.6,30.49,NW,309,20.0,-999.0,9,0.00,,,0.00,705,WeatherHawk,2013-03-05 20:40:00,
2013-03-05 14:45:00,53.1,-4.2,30.50,NW,315,18.0,0.0,9,0.00,,,0.00,690,WeatherHawk,2013-03-05 20:45:00,
2013-03-05 14:50:00,55.1,-2.7,30.51,NE,47,13.0,0.0,9,0.00,,,0.00,679,WeatherHawk,2013-03-05 20:50:00,
2013-03-05 14:55:00,53.9,-3.6,30.50,NNW,332,26.0,-999.0,9,0.00,,,0.00,672,WeatherHawk,2013-03-05 20:55:00,
2013-03-05 15:00:00,53.1,-4.2,30.51,NNW,327,15.0,0.0,9,0.00,,,0.00,659,WeatherHawk,2013-03-05 21:00:00,
2013-03-05 15:05:00,53.3,-4.1,30.51,NW,323,20.0,0.0,9,0.00,,,0.00,647,WeatherHawk,2013-03-05 21:05:00,
2013-03-05 15:10:00,55.5,-2.3,30.51,SW,224,11.0,0.0,9,0.00,,,0.00,631,WeatherHawk,2013-03-05 21:10:00,
2013-03-05 15:15:00,54.9,-2.8,30.51,NW,305,15.0,0.0,9,0.00,,,0.00,623,WeatherHawk,2013-03-05 21:15:00,
2013-03-05 15:20:00,54.9,-2.9,30.49,NNW,328,10.0,0.0,9,0.00,,,0.00,608,WeatherHawk,2013-03-05 21:20:00,
2013-03-05 15:25:00,56.4,-1.7,30.50,NNW,335,16.0,-999.0,9,0.00,,,0.00,598,WeatherHawk,2013-03-05 21:25:00,
2013-03-05 15:30:00,53.7,-3.8,30.50,NNW,342,21.0,0.0,9,0.00,,,0.00,584,WeatherHawk,2013-03-05 21:30:00,
2013-03-05 15:35:00,54.8,-2.9,30.50,NNW,330,22.0,-999.0,9,0.00,,,0.00,570,WeatherHawk,2013-03-05 21:35:00,
2013-03-05 15:40:00,56.8,-1.4,30.50,NW,312,11.0,0.0,9,0.00,,,0.00,558,WeatherHawk,2013-03-05 21:40:00,
2013-03-05 15:45:00,56.1,-1.9,30.51,NNW,327,14.0,0.0,9,0.00,,,0.00,545,WeatherHawk,2013-03-05 21:45:00,
2013-03-05 15:50:00,54.9,-2.9,30.50,NNW,343,16.0,0.0,9,0.00,,,0.00,531,WeatherHawk,2013-03-05 21:50:00,
2013-03-05 15:55:00,54.3,-3.3,30.51,NW,319,20.0,-999.0,9,0.00,,,0.00,514,WeatherHawk,2013-03-05 21:55:00,
2013-03-05 16:00:00,54.1,-3.5,30.50,NNW,328,14.0,0.0,9,0.00,,,0.00,500,WeatherHawk,2013-03-05 22:00:00,
2013-03-05 16:05:00,57.7,-0.7,30.50,WSW,253,8.0,0.0,9,0.00,,,0.00,483,WeatherHawk,2013-03-05 22:05:00,
2013-03-05 16:10:00,56.0,-2.0,30.49,ENE,66,12.0,0.0,9,0.00,,,0.00,468,WeatherHawk,2013-03-05 22:10:00,
2013-03-05 16:15:00,55.0,-2.7,30.50,NE,46,12.0,-999.0,9,0.00,,,0.00,448,WeatherHawk,2013-03-05 22:15:00,
2013-03-05 16:20:00,56.2,-1.9,30.50,NW,319,19.0,0.0,9,0.00,,,0.00,437,WeatherHawk,2013-03-05 22:20:00,
2013-03-05 16:25:00,56.2,-1.8,30.50,NW,309,12.0,0.0,9,0.00,,,0.00,416,WeatherHawk,2013-03-05 22:25:00,
2013-03-05 16:30:00,56.7,-1.5,30.50,NNW,340,11.0,0.0,9,0.00,,,0.00,400,WeatherHawk,2013-03-05 22:30:00,
2013-03-05 16:35:00,56.6,-1.6,30.51,NNW,327,6.0,0.0,9,0.00,,,0.00,385,WeatherHawk,2013-03-05 22:35:00,
2013-03-05 16:40:00,56.3,-1.8,30.50,North,6,9.0,-999.0,9,0.00,,,0.00,363,WeatherHawk,2013-03-05 22:40:00,
2013-03-05 16:45:00,55.4,-2.4,30.49,NNW,331,17.0,0.0,9,0.00,,,0.00,349,WeatherHawk,2013-03-05 22:45:00,
2013-03-05 16:50:00,55.4,-2.5,30.49,NNW,327,12.0,0.0,9,0.00,,,0.00,333,WeatherHawk,2013-03-05 22:50:00,
2013-03-05 16:55:00,56.1,0.3,30.50,NW,324,15.0,0.0,10,0.00,,,0.00,315,WeatherHawk,2013-03-05 22:55:00,
2013-03-05 17:00:00,55.5,-2.3,30.51,NW,308,12.0,0.0,9,0.00,,,0.00,292,WeatherHawk,2013-03-05 23:00:00,
2013-03-05 17:05:00,56.6,-1.6,30.50,NW,319,10.0,0.0,9,0.00,,,0.00,281,WeatherHawk,2013-03-05 23:05:00,
2013-03-05 17:10:00,55.9,0.2,30.50,WNW,285,12.0,-999.0,10,0.00,,,0.00,266,WeatherHawk,2013-03-05 23:10:00,
2013-03-05 17:15:00,55.2,-2.6,30.50,NNW,343,14.0,0.0,9,0.00,,,0.00,245,WeatherHawk,2013-03-05 23:15:00,
2013-03-05 17:20:00,55.7,-2.2,30.50,NNW,330,11.0,0.0,9,0.00,,,0.00,227,WeatherHawk,2013-03-05 23:20:00,
2013-03-05 17:25:00,55.2,-2.6,30.50,NW,324,14.0,0.0,9,0.00,,,0.00,210,WeatherHawk,2013-03-05 23:25:00,
2013-03-05 17:30:00,55.5,-0.2,30.50,North,350,11.0,-999.0,10,0.00,,,0.00,192,WeatherHawk,2013-03-05 23:30:00,
2013-03-05 17:35:00,54.8,-0.7,30.51,NW,317,8.0,0.0,10,0.00,,,0.00,174,WeatherHawk,2013-03-05 23:35:00,
2013-03-05 17:40:00,54.7,-0.8,30.50,NW,316,11.0,-999.0,10,0.00,,,0.00,156,WeatherHawk,2013-03-05 23:40:00,
2013-03-05 17:45:00,55.0,-0.6,30.52,NW,321,12.0,0.0,10,0.00,,,0.00,137,WeatherHawk,2013-03-05 23:45:00,
2013-03-05 17:50:00,54.5,-0.9,30.52,NW,316,11.0,0.0,10,0.00,,,0.00,118,WeatherHawk,2013-03-05 23:50:00,
2013-03-05 17:55:00,54.6,-0.8,30.52,NE,55,7.0,0.0,10,0.00,,,0.00,103,WeatherHawk,2013-03-05 23:55:00,
2013-03-05 18:00:00,54.5,-1.0,30.52,NNW,344,9.0,-999.0,10,0.00,,,0.00,87,WeatherHawk,2013-03-06 00:00:00,
2013-03-05 18:05:00,54.5,-1.0,30.52,NNW,328,13.0,0.0,10,0.00,,,0.00,67,WeatherHawk,2013-03-06 00:05:00,
2013-03-05 18:10:00,54.3,-1.1,30.53,NW,325,11.0,-999.0,10,0.00,,,0.00,51,WeatherHawk,2013-03-06 00:10:00,
2013-03-05 18:15:00,54.1,-3.4,30.53,NW,318,9.0,0.0,9,0.00,,,0.00,35,WeatherHawk,2013-03-06 00:15:00,
2013-03-05 18:20:00,53.7,-1.5,30.53,NNW,328,8.0,0.0,10,0.00,,,0.00,21,WeatherHawk,2013-03-06 00:20:00,
2013-03-05 18:25:00,53.8,-3.7,30.54,NW,325,8.0,0.0,9,0.00,,,0.00,11,WeatherHawk,2013-03-06 00:25:00,
2013-03-05 18:30:00,53.7,-3.8,30.54,NNW,330,8.0,0.0,9,0.00,,,0.00,5,WeatherHawk,2013-03-06 00:30:00,
2013-03-05 18:35:00,53.4,-4.0,30.54,NNW,327,8.0,0.0,9,0.00,,,0.00,3,WeatherHawk,2013-03-06 00:35:00,
2013-03-05 18:40:00,53.5,-3.9,30.56,NW,326,9.0,0.0,9,0.00,,,0.00,1,WeatherHawk,2013-03-06 00:40:00,
2013-03-05 18:45:00,53.3,-4.0,30.55,NW,312,8.0,0.0,9,0.00,,,0.00,1,WeatherHawk,2013-03-06 00:45:00,
2013-03-05 18:50:00,53.0,-4.3,30.55,NNW,328,5.0,0.0,9,0.00,,,0.00,0,WeatherHawk,2013-03-06 00:50:00,
2013-03-05 18:55:00,52.9,-4.4,30.55,ENE,62,6.0,0.0,9,0.00,,,0.00,0,WeatherHawk,2013-03-06 00:55:00,
2013-03-05 19:00:00,52.9,-4.4,30.55,NW,307,8.0,0.0,9,0.00,,,0.00,0,WeatherHawk,2013-03-06 01:00:00,
2013-03-05 19:05:00,53.4,-4.0,30.56,NNW,329,7.0,0.0,9,0.00,,,0.00,0,WeatherHawk,2013-03-06 01:05:00,
2013-03-05 19:10:00,52.3,-4.8,30.56,NW,308,6.0,0.0,9,0.00,,,0.00,0,WeatherHawk,2013-03-06 01:10:00,
2013-03-05 19:15:00,52.2,-4.9,30.57,NNW,330,5.0,0.0,9,0.00,,,0.00,0,WeatherHawk,2013-03-06 01:15:00,
2013-03-05 19:20:00,51.8,-5.2,30.57,WNW,287,5.0,0.0,9,0.00,,,0.00,1,WeatherHawk,2013-03-06 01:20:00,
2013-03-05 19:25:00,51.7,-5.3,30.56,NNW,344,4.0,0.0,9,0.00,,,0.00,1,WeatherHawk,2013-03-06 01:25:00,
2013-03-05 19:30:00,51.3,-5.6,30.57,SW,219,3.0,0.0,9,0.00,,,0.00,0,WeatherHawk,2013-03-06 01:30:00,
2013-03-05 19:35:00,51.4,-7.9,30.57,West,267,4.0,-999.0,8,0.00,,,0.00,0,WeatherHawk,2013-03-06 01:35:00,
2013-03-05 19:40:00,51.0,-8.2,30.57,West,261,4.0,0.0,8,0.00,,,0.00,0,WeatherHawk,2013-03-06 01:40:00,
2013-03-05 19:45:00,50.2,-8.8,30.58,WSW,248,2.0,0.0,8,0.00,,,0.00,0,WeatherHawk,2013-03-06 01:45:00,
2013-03-05 19:50:00,49.9,-9.0,30.58,SW,226,1.0,0.0,8,0.00,,,0.00,1,WeatherHawk,2013-03-06 01:50:00,
2013-03-05 19:55:00,50.6,-11.2,30.57,WNW,298,5.0,0.0,7,0.00,,,0.00,0,WeatherHawk,2013-03-06 01:55:00,
2013-03-05 20:00:00,50.0,-6.6,30.57,NNW,328,3.0,0.0,9,0.00,,,0.00,0,WeatherHawk,2013-03-06 02:00:00,
2013-03-05 20:06:00,49.6,-2.7,30.58,West,270,3.0,0.0,11,0.00,,,0.00,0,WeatherHawk,2013-03-06 02:06:00,
2013-03-05 20:11:00,50.3,-2.2,30.58,WNW,286,5.0,0.0,11,0.00,,,0.00,1,WeatherHawk,2013-03-06 02:11:00,
2013-03-05 20:16:00,51.0,-1.6,30.58,North,10,7.0,0.0,11,0.00,,,0.00,1,WeatherHawk,2013-03-06 02:16:00,
2013-03-05 20:21:00,50.5,-2.0,30.59,NW,314,8.0,0.0,11,0.00,,,0.00,0,WeatherHawk,2013-03-06 02:21:00,
2013-03-05 20:26:00,50.5,-4.0,30.58,WNW,300,4.0,0.0,10,0.00,,,0.00,1,WeatherHawk,2013-03-06 02:26:00,
2013-03-05 20:31:00,49.2,-5.0,30.57,West,269,4.0,0.0,10,0.00,,,0.00,1,WeatherHawk,2013-03-06 02:31:00,
2013-03-05 20:37:00,49.8,-4.5,30.58,NW,310,5.0,0.0,10,0.00,,,0.00,1,WeatherHawk,2013-03-06 02:37:00,
2013-03-05 20:42:00,50.4,-2.1,30.58,NW,314,10.0,0.0,11,0.00,,,0.00,0,WeatherHawk,2013-03-06 02:42:00,
2013-03-05 20:47:00,49.5,-4.8,30.58,NNW,335,5.0,0.0,10,0.00,,,0.00,0,WeatherHawk,2013-03-06 02:47:00,
2013-03-05 20:52:00,49.5,-4.8,30.58,North,350,4.0,0.0,10,0.00,,,0.00,1,WeatherHawk,2013-03-06 02:52:00,
2013-03-05 20:58:00,49.2,-7.2,30.59,West,269,3.0,0.0,9,0.00,,,0.00,0,WeatherHawk,2013-03-06 02:58:00,
2013-03-05 21:04:00,49.4,-9.4,30.59,NW,309,4.0,0.0,8,0.00,,,0.00,1,WeatherHawk,2013-03-06 03:04:00,
2013-03-05 21:09:00,49.7,-9.2,30.59,NNW,328,6.0,0.0,8,0.00,,,0.00,1,WeatherHawk,2013-03-06 03:09:00,
2013-03-05 21:14:00,49.1,-1.3,30.59,NW,326,5.0,0.0,12,0.00,,,0.00,2,WeatherHawk,2013-03-06 03:14:00,
2013-03-05 21:19:00,48.9,-3.2,30.60,West,272,4.0,0.0,11,0.00,,,0.00,0,WeatherHawk,2013-03-06 03:19:00,
2013-03-05 21:25:00,48.2,-5.8,30.60,NNW,328,3.0,0.0,10,0.00,,,0.00,0,WeatherHawk,2013-03-06 03:25:00,
2013-03-05 21:30:00,48.3,-7.9,30.59,NW,317,5.0,0.0,9,0.00,,,0.00,1,WeatherHawk,2013-03-06 03:30:00,
2013-03-05 21:35:00,48.5,-0.1,30.60,NW,325,5.0,0.0,13,0.00,,,0.00,0,WeatherHawk,2013-03-06 03:35:00,
2013-03-05 21:40:00,48.1,-2.0,30.60,NW,315,4.0,0.0,12,0.00,,,0.00,0,WeatherHawk,2013-03-06 03:40:00,
2013-03-05 21:45:00,47.9,-8.2,30.61,NW,320,2.0,-999.0,9,0.00,,,0.00,0,WeatherHawk,2013-03-06 03:45:00,
2013-03-05 21:50:00,47.4,-6.4,30.62,WNW,287,0.0,0.0,10,0.00,,,0.00,0,WeatherHawk,2013-03-06 03:50:00,
2013-03-05 21:55:00,46.9,-6.8,30.61,NW,305,0.0,-999.0,10,0.00,,,0.00,0,WeatherHawk,2013-03-06 03:55:00,
2013-03-05 22:00:00,46.3,-1.8,30.62,NNW,345,0.0,0.0,13,0.00,,,0.00,0,WeatherHawk,2013-03-06 04:00:00,
2013-03-05 22:05:00,45.9,-2.1,30.62,West,280,2.0,-999.0,13,0.00,,,0.00,0,WeatherHawk,2013-03-06 04:05:00,
2013-03-05 22:10:00,46.5,4.1,30.62,SW,235,0.0,0.0,17,0.00,,,0.00,1,WeatherHawk,2013-03-06 04:10:00,
2013-03-05 22:15:00,45.0,5.3,30.62,SW,235,0.0,0.0,19,0.00,,,0.00,1,WeatherHawk,2013-03-06 04:15:00,
2013-03-05 22:20:00,44.3,4.7,30.63,SW,235,0.0,0.0,19,0.00,,,0.00,0,WeatherHawk,2013-03-06 04:20:00,
2013-03-05 22:25:00,45.3,7.7,30.64,SW,235,1.0,0.0,21,0.00,,,0.00,1,WeatherHawk,2013-03-06 04:25:00,
2013-03-05 22:30:00,45.2,4.2,30.65,West,277,1.0,0.0,18,0.00,,,0.00,0,WeatherHawk,2013-03-06 04:30:00,
2013-03-05 22:35:00,45.9,2.3,30.65,West,277,1.0,0.0,16,0.00,,,0.00,0,WeatherHawk,2013-03-06 04:35:00,
2013-03-05 22:40:00,45.7,2.1,30.64,WNW,282,0.0,0.0,16,0.00,,,0.00,0,WeatherHawk,2013-03-06 04:40:00,
2013-03-05 22:45:00,45.3,5.5,30.63,WNW,282,2.0,0.0,19,0.00,,,0.00,0,WeatherHawk,2013-03-06 04:45:00,
2013-03-05 22:50:00,46.1,5.0,30.64,WNW,283,1.0,0.0,18,0.00,,,0.00,2,WeatherHawk,2013-03-06 04:50:00,
2013-03-05 22:55:00,45.7,3.4,30.63,WNW,283,0.0,0.0,17,0.00,,,0.00,0,WeatherHawk,2013-03-06 04:55:00,
2013-03-05 23:00:00,45.5,5.6,30.63,NW,315,2.0,-999.0,19,0.00,,,0.00,0,WeatherHawk,2013-03-06 05:00:00,
2013-03-05 23:03:00,44.9,7.3,30.63,NW,315,2.0,0.0,21,0.00,,,0.00,1,WeatherHawk,2013-03-06 05:03:00,
2013-03-05 23:04:00,44.8,4.0,30.64,NW,315,0.0,0.0,18,0.00,,,0.00,1,WeatherHawk,2013-03-06 05:04:00,
2013-03-05 23:10:00,44.8,7.3,30.64,NW,315,1.0,0.0,21,0.00,,,0.00,1,WeatherHawk,2013-03-06 05:10:00,
2013-03-05 23:15:00,43.9,4.4,30.64,West,276,0.0,0.0,19,0.00,,,0.00,0,WeatherHawk,2013-03-06 05:15:00,
2013-03-05 23:20:00,45.9,8.2,30.63,NNW,329,1.0,-999.0,21,0.00,,,0.00,1,WeatherHawk,2013-03-06 05:20:00,
2013-03-05 23:25:00,44.6,7.1,30.63,North,0,0.0,0.0,21,0.00,,,0.00,0,WeatherHawk,2013-03-06 05:25:00,
2013-03-05 23:30:00,45.9,7.1,30.63,WNW,303,3.0,0.0,20,0.00,,,0.00,1,WeatherHawk,2013-03-06 05:30:00,
2013-03-05 23:35:00,45.3,7.7,30.64,North,11,3.0,0.0,21,0.00,,,0.00,0,WeatherHawk,2013-03-06 05:35:00,
2013-03-05 23:40:00,45.2,7.6,30.63,NW,316,4.0,-999.0,21,0.00,,,0.00,0,WeatherHawk,2013-03-06 05:40:00,
2013-03-05 23:45:00,44.8,5.1,30.64,WNW,299,3.0,-999.0,19,0.00,,,0.00,0,WeatherHawk,2013-03-06 05:45:00,
2013-03-05 23:50:00,44.9,5.2,30.64,NNE,21,3.0,0.0,19,0.00,,,0.00,0,WeatherHawk,2013-03-06 05:50:00,
2013-03-05 23:55:00,45.5,2.0,30.64,North,9,7.0,0.0,16,0.00,,,0.00,0,WeatherHawk,2013-03-06 05:55:00,